| time (UTC) | temp C | wind direction | speed KPH | gust KPH | rain 1hr cm | rain 24hr cm | rain mn cm | humidity % | barometer mb |
| 20260506014803 | 20 | 196 | 3.2 | 14.5 | 0.00 | 19.30 | 19.30 | 59 | 1008.1 |
| 20260506014203 | 20 | 196 | 1.6 | 14.5 | 0.00 | 19.30 | 19.30 | 58 | 1008.0 |
| 20260506013604 | 20 | 197 | 1.6 | 12.9 | 0.00 | 19.30 | 19.30 | 58 | 1008.1 |
| 20260506013003 | 20 | 196 | 1.6 | 12.9 | 0.00 | 19.30 | 19.30 | 57 | 1008.2 |
| 20260506012403 | 20 | 196 | 1.6 | 9.7 | 0.00 | 19.30 | 19.30 | 57 | 1007.9 |
| 20260506011804 | 21 | 196 | 4.8 | 22.5 | 0.00 | 19.30 | 19.30 | 57 | 1007.7 |
| 20260506011203 | 21 | 195 | 8.0 | 22.5 | 0.00 | 19.30 | 19.30 | 56 | 1007.2 |
| 20260506010603 | 21 | 197 | 6.4 | 22.5 | 0.00 | 19.30 | 19.30 | 56 | 1007.2 |
| 20260506010003 | 21 | 199 | 8.0 | 30.6 | 0.00 | 19.30 | 19.30 | 56 | 1007.1 |
| 20260506005404 | 21 | 201 | 9.7 | 30.6 | 0.00 | 19.30 | 19.30 | 56 | 1006.9 |
| 20260506004804 | 21 | 195 | 9.7 | 24.1 | 0.00 | 19.30 | 19.30 | 56 | 1006.8 |
| 20260506004203 | 21 | 193 | 9.7 | 22.5 | 0.00 | 19.30 | 19.30 | 56 | 1006.5 |
| 20260506003603 | 21 | 201 | 11.3 | 22.5 | 0.00 | 19.30 | 19.30 | 55 | 1006.6 |
| 20260506003004 | 21 | 196 | 9.7 | 27.4 | 0.00 | 19.30 | 19.30 | 55 | 1006.4 |
| 20260506002403 | 21 | 193 | 8.0 | 22.5 | 0.00 | 19.30 | 19.30 | 55 | 1006.3 |
| 20260506001803 | 21 | 196 | 8.0 | 22.5 | 0.00 | 19.30 | 19.30 | 55 | 1006.1 |
| 20260506001204 | 22 | 195 | 9.7 | 24.1 | 0.00 | 19.30 | 19.30 | 54 | 1006.0 |
| 20260506000604 | 22 | 195 | 9.7 | 24.1 | 0.00 | 19.30 | 19.30 | 54 | 1005.9 |
| 20260506000004 | 22 | 189 | 9.7 | 24.1 | 0.00 | 19.30 | 19.30 | 54 | 1005.8 |
| 20260505235403 | 22 | 190 | 9.7 | 20.9 | 0.00 | 19.30 | 19.30 | 53 | 1005.6 |
| 20260505234804 | 22 | 197 | 11.3 | 27.4 | 0.00 | 19.30 | 19.30 | 54 | 1005.6 |
| 20260505234204 | 22 | 196 | 11.3 | 32.2 | 0.00 | 19.30 | 19.30 | 54 | 1005.4 |
| 20260505233603 | 22 | 192 | 11.3 | 32.2 | 0.00 | 19.30 | 19.30 | 53 | 1005.3 |
| 20260505233003 | 22 | 193 | 11.3 | 29.0 | 0.00 | 19.30 | 19.30 | 53 | 1005.4 |
| 20260505232404 | 22 | 195 | 9.7 | 24.1 | 0.00 | 19.30 | 19.30 | 53 | 1005.1 |
| 20260505231804 | 23 | 195 | 11.3 | 27.4 | 0.00 | 19.30 | 19.30 | 53 | 1005.0 |
| 20260505231203 | 23 | 196 | 11.3 | 27.4 | 0.00 | 19.30 | 19.30 | 52 | 1004.8 |
| 20260505230603 | 23 | 200 | 11.3 | 25.7 | 0.00 | 19.30 | 19.30 | 52 | 1004.8 |
| 20260505230004 | 23 | 199 | 11.3 | 27.4 | 0.00 | 19.30 | 19.30 | 51 | 1004.8 |
| 20260505225404 | 23 | 194 | 11.3 | 25.7 | 0.00 | 19.30 | 19.30 | 50 | 1004.6 |
| 20260505224803 | 23 | 196 | 12.9 | 32.2 | 0.00 | 19.30 | 19.30 | 50 | 1004.5 |
| 20260505224203 | 23 | 195 | 16.1 | 32.2 | 0.00 | 19.30 | 19.30 | 50 | 1004.6 |
| 20260505223604 | 23 | 185 | 12.9 | 30.6 | 0.00 | 19.30 | 19.30 | 52 | 1004.5 |
| 20260505223003 | 23 | 179 | 11.3 | 27.4 | 0.00 | 19.30 | 19.30 | 53 | 1004.3 |
| 20260505222403 | 22 | 189 | 11.3 | 27.4 | 0.00 | 19.30 | 19.30 | 53 | 1004.2 |
| 20260505221804 | 22 | 190 | 12.9 | 30.6 | 0.00 | 19.30 | 19.30 | 54 | 1004.1 |
| 20260505221203 | 22 | 189 | 12.9 | 30.6 | 0.00 | 19.30 | 19.30 | 54 | 1004.1 |
| 20260505220603 | 22 | 193 | 11.3 | 27.4 | 0.00 | 19.30 | 19.30 | 55 | 1004.1 |
| 20260505220003 | 22 | 189 | 11.3 | 27.4 | 0.00 | 19.30 | 19.30 | 56 | 1004.1 |
| 20260505215404 | 22 | 189 | 12.9 | 29.0 | 0.00 | 19.30 | 19.30 | 55 | 1004.1 |
| 20260505214804 | 22 | 191 | 12.9 | 29.0 | 0.00 | 19.30 | 19.30 | 55 | 1003.8 |
| 20260505214203 | 22 | 195 | 11.3 | 25.7 | 0.00 | 19.30 | 19.30 | 55 | 1003.9 |
| 20260505213604 | 22 | 183 | 8.0 | 25.7 | 0.00 | 19.30 | 19.30 | 56 | 1003.8 |
| 20260505213004 | 22 | 169 | 8.0 | 24.1 | 0.00 | 19.30 | 19.30 | 56 | 1003.8 |
| 20260505212403 | 22 | 171 | 9.7 | 24.1 | 0.00 | 19.30 | 19.30 | 56 | 1003.7 |
| 20260505211803 | 21 | 181 | 8.0 | 20.9 | 0.00 | 19.30 | 19.30 | 57 | 1003.6 |
| 20260505211204 | 21 | 165 | 9.7 | 33.8 | 0.00 | 19.30 | 19.30 | 57 | 1003.5 |
| 20260505210604 | 22 | 175 | 11.3 | 33.8 | 0.00 | 19.30 | 19.30 | 55 | 1003.6 |
| 20260505210003 | 22 | 179 | 11.3 | 32.2 | 0.00 | 19.30 | 19.30 | 56 | 1003.5 |
| 20260505205403 | 22 | 169 | 11.3 | 20.9 | 0.00 | 19.30 | 19.30 | 55 | 1003.4 |
| 20260505204804 | 22 | 162 | 11.3 | 27.4 | 0.00 | 19.30 | 19.30 | 53 | 1003.3 |
| 20260505204203 | 22 | 169 | 11.3 | 29.0 | 0.00 | 19.30 | 19.30 | 55 | 1003.4 |
| 20260505203603 | 22 | 179 | 9.7 | 22.5 | 19.30 | 19.30 | 19.30 | 55 | 1003.3 |
| 20260505203003 | 22 | 168 | 9.7 | 22.5 | 19.30 | 19.30 | 19.30 | 54 | 1003.5 |
| 20260505202404 | 22 | 169 | 9.7 | 22.5 | 19.30 | 19.30 | 19.30 | 53 | 1003.6 |
| 20260505201804 | 22 | 175 | 8.0 | 24.1 | 19.30 | 19.30 | 19.30 | 53 | 1003.6 |
| 20260505201203 | 22 | 163 | 11.3 | 27.4 | 19.30 | 19.30 | 19.30 | 53 | 1003.6 |
| 20260505200603 | 23 | 162 | 11.3 | 24.1 | 19.30 | 19.30 | 19.30 | 52 | 1003.5 |
| 20260505200004 | 23 | 162 | 11.3 | 27.4 | 19.30 | 19.30 | 19.30 | 52 | 1003.7 |
| 20260505195403 | 23 | 164 | 12.9 | 27.4 | 19.30 | 19.30 | 19.30 | 52 | 1003.6 |
| 20260505194804 | 23 | 161 | 11.3 | 24.1 | 19.30 | 19.30 | 19.30 | 52 | 1003.6 |